Location: Lane
(33.5226°N, 79.8788°W)
Time: 19:48:12
(UTC+00:00)

Courier 1B Rocket - Pass Details

Date: 11 October 2022
Orbit: 920 x 1202 km, 28.3° (Epoch: 01 December)

Event Time Altitude Azimuth Distance (km) Brightness Sun altitude
Rises 02:58:07 0° 264° (W) 3,731 8.5 -50.2°
Enters shadow 02:59:44 - 258° (WSW) 3,276 8.1 -50.5°
Reaches altitude 10° 03:02:02 10° 244° (WSW) 2,723 - -50.9°
Maximum altitude 03:05:42 16° 209° (SSW) 2,291 - -51.5°
Drops below altitude 10° 03:09:18 10° 174° (S) 2,637 - -52.1°
Sets 03:13:00 0° 153° (SSE) 3,552 - -52.7°
